Weather in Liege

Belgium     50°38′43″N   5°34′20″E
temp.,
°C
wind,
m/s
gust,
m/s
humid.,
%
clouds,
%
prec.,
mm/h
press.,
hPa
HPBL,
m
21 june, mon
mon2123:00+18ene2584100 0.6 1006118
02:00+17ne2496100 2.8 1006181
05:00+16n4698100 0.1 1005346
08:00+14nne4798100 0.7 1005417
11:00+13nnw4798100 1.9 1008458
14:00+14nnw3392100 2.0 1011508
17:00+16ne4578100 0.1 1011774
20:00+16ne4676100 0.1 1012870
22 june, tue
tue2223:00+14ne4881100 0.0 1014587
02:00+12ne4888100 0.0 1015422
05:00+10ne4995100 0.0 1014360
08:00+12ne5884100 0.0 1016521
11:00+15ne687299 0.0 1016925
14:00+13ene4986100 0.3 1017561
17:00+15ne4874100 0.1 1016577
20:00+16ne597068 0.1 1016749
23 june, wed
wed2323:00+15ne4117875 0.0 1018510
02:00+12ne488898 0.0 1018296
05:00+11ne369526 0.1 1019172
08:00+14ne468519 0.1 1019317
11:00+18ne457784 0.6 1019795
14:00+18e3680100 1.0 1019759
17:00+20ene457478 1.3 1018933
20:00+18ne487788 1.6 1018416
24 june, thu
thu2423:00+15ne497898 0.0 1020271
02:00+12ne3589100 0.0 1020106
05:00+12nne239792 0.9 102076
08:00+14ne3494100 1.1 1019244
11:00+20ne3471100 0.0 1019880
14:00+20ne337599 1.0 1019778
17:00+21nnw3475100 1.6 1018828
20:00+19n2587100 3.8 1019225
25 june, fri
fri2523:00+16nw119161 0.7 102015
02:00+15nw229463 0.7 102034
05:00+12nw119741 0.0 102015
08:00+14wnw119571 0.0 1020230
11:00+18nw127989 0.1 1021747
14:00+22wnw335344 0.2 10201427
17:00+22wnw443868 0.0 10201418
20:00+19nw3557100 0.0 1020158